CW9676 Weather Reports


time (UTC)temp
C
wind
direction
speed
KPH
gust
KPH
rain 1hr
cm
rain 24hr
cm
rain mn
cm
humidity
%
barometer
mb
20260901014935 22 200 14.5 27.4 0.00 0.00 0.00 49 1004.6
20260901013955 22 239 14.5 24.1 0.00 0.00 0.00 50 1004.4
20260901010634 23 214 11.3 25.7 0.00 0.00 0.00 49 1004.2
20260901005653 23 166 14.5 30.6 0.00 0.00 0.00 49 1004.5
20260901004649 23 183 16.1 30.6 0.00 0.00 0.00 48 1004.5
20260901003705 23 177 16.1 29.0 0.00 0.00 0.00 47 1004.5
20260901002647 24 221 14.5 29.0 0.00 0.00 0.00 46 1004.4
20260901001651 24 215 12.9 25.7 0.00 0.00 0.00 46 1004.4
20260901000630 25 175 14.5 30.6 0.00 0.00 0.00 45 1004.4
20260831234519 25 157 17.7 29.0 0.00 0.00 0.00 46 1004.4
20260831233459 26 163 16.1 33.8 0.00 0.00 0.00 44 1004.5
20260831232436 26 178 22.5 33.8 0.00 0.00 0.00 42 1004.4
20260831231440 27 164 19.3 35.4 0.00 0.00 0.00 41 1004.1
20260831230453 26 204 22.5 38.6 0.00 0.00 0.00 42 1004.0
20260831225446 27 163 20.9 40.2 0.00 0.00 0.00 40 1003.8
20260831224421 27 132 22.5 40.2 0.00 0.00 0.00 40 1004.0
20260831222306 28 100 22.5 35.4 0.00 0.00 0.00 37 1004.2
20260831220116 29 91 20.9 35.4 0.00 0.00 0.00 35 1004.4
20260831213958 29 72 20.9 35.4 0.00 0.00 0.00 36 1004.4
20260831213022 30 63 20.9 35.4 0.00 0.00 0.00 35 1004.9
20260831210834 28 90 14.5 32.2 0.00 0.00 0.00 35 1005.2
20260831204651 30 98 8.0 27.4 0.00 0.00 0.00 34 1005.4
20260831203658 29 80 9.7 22.5 0.00 0.00 0.00 33 1005.7
20260831202654 28 58 8.0 22.5 0.00 0.00 0.00 35 1006.0
20260831201622 28 55 11.3 22.5 0.00 0.00 0.00 34 1006.0
20260831200624 30 94 9.7 20.9 0.00 0.00 0.00 32 1006.0
20260831195629 29 150 9.7 20.9 0.00 0.00 0.00 34 1006.2
20260831194625 29 79 12.9 22.5 0.00 0.00 0.00 32 1006.3
20260831193624 28 138 9.7 22.5 0.00 0.00 0.00 34 1006.3
20260831192643 28 155 11.3 19.3 0.00 0.00 0.00 33 1006.4
20260831191653 28 59 14.5 25.7 0.00 0.00 0.00 35 1006.6
20260831190624 28 123 14.5 30.6 0.00 0.00 0.00 36 1006.6
20260831185601 27 107 16.1 30.6 0.00 0.00 0.00 37 1006.6
20260831184621 27 121 14.5 30.6 0.00 0.00 0.00 37 1006.8
20260831183633 27 137 14.5 30.6 0.00 0.00 0.00 38 1007.0
20260831182626 27 115 14.5 27.4 0.00 0.00 0.00 37 1007.0
20260831181606 26 115 14.5 27.4 0.00 0.00 0.00 39 1007.1
20260831180603 26 80 14.5 25.7 0.00 0.00 0.00 40 1007.2
20260831175604 26 84 14.5 25.7 0.00 0.00 0.00 39 1007.3
20260831173525 25 44 14.5 30.6 0.00 0.00 0.00 43 1007.6
20260831172510 25 85 16.1 30.6 0.00 0.00 0.00 42 1007.5
20260831171521 25 117 16.1 30.6 0.00 0.00 0.00 43 1007.6
20260831170531 24 140 17.7 30.6 0.00 0.00 0.00 43 1007.6
20260831165515 24 97 16.1 29.0 0.00 0.00 0.00 47 1007.6
20260831164530 24 99 17.7 29.0 0.00 0.00 0.00 46 1007.5
20260831163520 24 83 16.1 27.4 0.00 0.00 0.00 48 1007.5
20260831161403 24 119 16.1 24.1 0.00 0.00 0.00 48 1007.5
20260831160346 24 125 12.9 25.7 0.00 0.00 0.00 48 1007.4
20260831155330 23 123 16.1 25.7 0.00 0.00 0.00 47 1007.2
20260831154345 23 95 16.1 25.7 0.00 0.00 0.00 48 1007.1
20260831153317 22 150 17.7 30.6 0.00 0.00 0.00 53 1006.9
20260831151116 22 117 16.1 29.0 0.00 0.00 0.00 60 1006.9
20260831150109 22 117 14.5 27.4 0.00 0.00 0.00 63 1006.9
20260831145044 21 91 14.5 25.7 0.00 0.00 0.00 63 1006.7
20260831144030 21 92 14.5 25.7 0.00 0.00 0.00 63 1006.6
20260831143034 21 123 12.9 24.1 0.00 0.00 0.00 64 1006.4
20260831142028 21 113 11.3 24.1 0.00 0.00 0.00 64 1006.2
20260831141047 20 115 14.5 24.1 0.00 0.00 0.00 67 1006.2
20260831140014 19 127 16.1 27.4 0.00 0.00 0.00 70 1005.9
20260831134947 19 124 16.1 29.0 0.00 0.00 0.00 70 1005.9
20260831133933 19 113 17.7 29.0 0.00 0.00 0.00 69 1005.9
20260831132926 19 133 12.9 22.5 0.00 0.00 0.00 70 1005.9
20260831131944 18 134 12.9 20.9 0.00 0.00 0.00 71 1005.7
20260831130959 18 109 4.8 14.5 0.00 0.00 0.00 71 1005.7
20260831130010 18 94 3.2 14.5 0.00 0.00 0.00 70 1005.6
20260831124937 19 132 6.4 16.1 0.00 0.00 0.00 69 1005.5
20260831123934 19 104 8.0 17.7 0.00 0.00 0.00 68 1005.4
20260831122933 19 111 11.3 20.9 0.00 0.00 0.00 67 1005.2
20260831121859 19 111 17.7 32.2 0.00 0.00 0.00 69 1005.1
20260831120916 18 130 16.1 32.2 0.00 0.00 0.00 70 1005.2
20260831114812 18 98 11.3 20.9 0.00 0.00 0.00 70 1005.5
20260831113817 19 77 11.3 20.9 0.00 0.00 0.00 68 1005.7
20260831112822 19 90 11.3 19.3 0.00 0.00 0.00 66 1005.6
20260831111808 19 105 9.7 19.3 0.00 0.00 0.00 64 1005.8
20260831110817 20 94 9.7 20.9 0.00 0.00 0.00 62 1005.9
20260831105756 20 93 11.3 22.5 0.00 0.00 0.00 59 1005.7
20260831104807 20 113 12.9 22.5 0.00 0.00 0.00 58 1005.7
20260831103757 20 109 9.7 17.7 0.00 0.00 0.00 57 1005.7
20260831102809 20 130 6.4 27.4 0.00 0.00 0.00 54 1005.6
20260831101816 20 116 11.3 27.4 0.00 0.00 0.00 55 1005.7
20260831100829 20 106 8.0 16.1 0.00 0.00 0.00 53 1005.5
20260831095828 20 81 8.0 17.7 0.00 0.00 0.00 55 1005.4
20260831094814 20 83 6.4 17.7 0.00 0.00 0.00 55 1005.3
20260831093800 21 129 4.8 9.7 0.00 0.00 0.00 53 1004.9
20260831091710 20 120 9.7 14.5 0.00 0.00 0.00 55 1004.8
20260831090705 20 158 8.0 16.1 0.00 0.00 0.00 55 1004.5
20260831085720 20 138 8.0 16.1 0.00 0.00 0.00 56 1004.5
20260831083605 20 121 6.4 14.5 0.00 0.00 0.00 54 1004.4
20260831082557 20 87 4.8 14.5 0.00 0.00 0.00 54 1004.5
20260831081610 21 47 1.6 6.4 0.00 0.00 0.00 53 1004.3
20260831080540 21 137 6.4 17.7 0.00 0.00 0.00 56 1004.3
20260831075520 20 125 8.0 17.7 0.00 0.00 0.00 61 1004.4
20260831073423 21 313 0.0 4.8 0.00 0.00 0.00 56 1005.3
20260831071257 21 75 1.6 3.2 0.00 0.00 0.00 49 1004.8
20260831070306 21 118 3.2 6.4 0.00 0.00 0.00 49 1004.7
20260831065306 21 146 4.8 6.4 0.00 0.00 0.00 49 1004.7
20260831064324 21 113 4.8 9.7 0.00 0.00 0.00 49 1004.7
20260831063344 21 122 4.8 9.7 0.00 0.00 0.00 50 1004.7
20260831062345 21 104 3.2 6.4 0.00 0.00 0.00 48 1004.7
20260831061341 22 121 3.2 4.8 0.00 0.00 0.00 45 1004.6
20260831060324 22 149 3.2 6.4 0.00 0.00 0.00 44 1004.6
20260831055307 22 161 3.2 6.4 0.00 0.00 0.00 45 1004.6
20260831054245 22 171 1.6 4.8 0.00 0.00 0.00 45 1004.9
20260831053235 23 130 1.6 4.8 0.00 0.00 0.00 44 1005.0
20260831052241 23 127 4.8 11.3 0.00 0.00 0.00 43 1005.1
20260831051215 23 140 6.4 11.3 0.00 0.00 0.00 43 1005.0
20260831045047 23 123 6.4 9.7 0.00 0.00 0.00 43 1005.1
20260831042853 23 142 6.4 9.7 0.00 0.00 0.00 44 1005.1
20260831041838 23 119 4.8 14.5 0.00 0.00 0.00 44 1004.9
20260831040819 23 96 8.0 14.5 0.00 0.00 0.00 44 1004.9
20260831035840 23 111 8.0 12.9 0.00 0.00 0.00 43 1004.8
20260831034811 24 137 6.4 12.9 0.00 0.00 0.00 42 1004.7
20260831033815 24 132 4.8 8.0 0.00 0.00 0.00 41 1004.6
20260831031711 25 141 4.8 9.7 0.00 0.00 0.00 39 1004.2
20260831025612 25 175 6.4 16.1 0.00 0.00 0.00 38 1003.8
20260831024622 25 152 8.0 16.1 0.00 0.00 0.00 38 1003.7
20260831023615 25 192 8.0 16.1 0.00 0.00 0.00 39 1003.6
20260831022627 25 163 8.0 16.1 0.00 0.00 0.00 38 1003.5
20260831021605 24 179 8.0 19.3 0.00 0.00 0.00 39 1003.4
20260831020544 24 229 11.3 19.3 0.00 0.00 0.00 41 1003.4
20260831015521 24 238 11.3 20.9 0.00 0.00 0.00 42 1003.5